User: anonymous   Login
Location: Fort Wayne
(41.1310°N, 85.1290°W)
Time: 18:18:23
(UTC-04:00)
Language:

COSMOS 2428 - Orbit

View from above orbital plane
View from above orbital plane
View from above satellite
View from above satellite

Ground track
Ground track

The orbit data is extracted from the following two-line orbital elements,

1 31792U 07029A   17114.86914667 +.00000053 +00000-0 +54883-4 0  9991
2 31792 070.9124 164.0565 0007758 333.2241 026.8478 14.12256377506452
Epoch (UTC): 24 April 2017 20:51:34
Eccentricity: 0.0007758
inclination: 70.9124°
perigee height: 846 km
apogee height: 857 km
right ascension of ascending node: 164.0565°
argument of perigee: 333.2241°
revolutions per day: 14.12256377
mean anomaly at epoch: 26.8478°
orbit number at epoch: 50645

The dashed part of the orbit path shows where the satellite is in the earth's shadow,  

DLR